Location: Newark
(33.9035°S, 18.4112°E)
Time: 00:15:16
(UTC+00:00)

STARLINK-1076 - Pass Details

Date: 21 January 2020
Orbit: 348 x 351 km, 53.0° (Epoch: 17 February)

Event Time Altitude Azimuth Distance (km) Brightness Sun altitude
Exits shadow 01:26:59 - 82° (E) 1,467 6.2 -25.4°
Enters shadow 02:22:14 -72° 312° (NW) 12,457 10.5 -17.3°
Maximum altitude 03:00:20 41° 222° (SW) 531 3.5 -11.0°
